sat.trackr.live / text

‹ back to catalog

STARLINK-11737 [DTC]

NORAD 64066 · 2025-107C

PAYLOAD ACTIVE UNKNOWN

§ Identity

Operator
Country
US
Launch date
2025-05-21
Launch site
AFETR
Launch vehicle
Mass (kg)
RCS (m²)

Purposes: comms

External: N2YO · Heavens-Above · Gunter

§ Orbital elements

Epoch: 2026-09-20T08:30:24.946560Z

Period
91.67 min
Inclination
42.9994°
Eccentricity
0.0002043
Mean motion
15.70903937 rev/d
Perigee alt
354.9 km
Apogee alt
357.7 km
Semi-major
6,734.4 km
B*
1.1952e-3
RAAN
4.8682°
Arg perigee
271.6214°
Mean anomaly
88.4419°
Rev number
7,791

§ Raw data

STARLINK-11737 [DTC]1 64066U 25107C   26263.35445540  .00156254  00000+0  11952-2 0  99982 64066  42.9994   4.8682 0002043 271.6214  88.4419 15.70903937 77913

JSON: /api/v1/satellites/64066 · /tle

For live sub-satellite position, see the globe view (requires WebGL).

§ Visibility from observer

Set your observer location to see the next 7 days of passes ≥ 10°. The values pass through the URL so the page stays shareable.

No JS? Fill the form by hand. The geolocation button needs JavaScript.